Location: Gebenbach
(49.5378°N, 11.8735°E)
Time: 03:24:52
(UTC+00:00)

USA 308 - Pass Details

Date: 29 October 2020
Orbit: 571 x 578 km, 54.0° (Epoch: 23 November)

Event Time Altitude Azimuth Distance (km) Brightness Sun altitude
Rises 17:05:12 0° 295° (WNW) 2,789 7.5 -11.9°
Reaches altitude 10° 17:07:27 10° 296° (WNW) 1,887 6.5 -12.2°
Maximum altitude 17:11:46 89° 214° (SSW) 580 2.9 -12.9°
Enters shadow 17:15:05 16° 118° (ESE) 1,503 4.5 -13.5°
